Flag for Switzerland Weather past 2 weeks in Onex, Geneva, Switzerland

Now
34 °F

Passing clouds.


Feels Like: 28 °F
Forecast: 26 / 35 °F
Wind: 7 mph from Southwest

Location: Geneva Cointrin Airport

Current Time: Jan 31, 2015 at 2:06:54 AM

Latest Report: Jan 31, 2015 at 1:20 AM


Visibility: N/A

Pressure: 29.09 "Hg

Humidity: 93%

Dew point: 32 °F

Location of OnexLocation

Historic Weather in Onex — Graph

°F

Onex temperature yesterday

Maximum temperature yesterday: 41 °F (at 12:50 AM)
Minimum temperature yesterday: 32 °F (at 3:50 PM)
Average temperature yesterday: 35 °F

Past Weeks' High & Low Weather Summary

 TemperatureHumidityPressure
High50 °F (Jan 16, 12:20 AM)100% (Jan 16, 12:50 PM)30.36 "Hg (Jan 16, 12:50 PM)
Low25 °F (Jan 18, 4:50 AM)48% (Jan 25, 1:20 PM)28.97 "Hg (Jan 29, 10:50 PM)
Average35 °F85%29.91 "Hg
* Reported Jan 16 12:20 AM — Jan 31 12:50 AM, Onex, Weather by CustomWeather, © 2014

Note: Actual official high and low records may vary slightly from our data, if they occured in-between our weather recording intervals... More about our weather records

Advertising

Onex weather history for previous 24 hours

 ConditionsComfort  
Time TempWeatherWind HumidityBarometerVisibility
12:50 AM
Jan 31
34 °FPartly cloudy.13 mph93%29.09 "Hg5 mi
12:20 AM34 °FSnow flurries. Partly cloudy.13 mph93%29.09 "Hg4 mi
11:50 PM
Jan 30
34 °FSnow flurries. Partly cloudy.5 mph93%29.06 "Hg4 mi
11:20 PM36 °FSnow flurries. Partly cloudy.14 mph87%29.06 "Hg4 mi
10:50 PM34 °FPartly cloudy.8 mph93%29.06 "HgN/A
10:20 PM34 °FSnow flurries. Partly cloudy.16 mph93%29.06 "Hg4 mi
9:50 PM34 °FLight snow. Fog.14 mph93%29.03 "Hg3 mi
9:20 PM34 °FSnow showers. Fog.13 mph93%29.03 "Hg2 mi
8:50 PM34 °FSnow flurries. Fog.14 mph100%29.03 "Hg3 mi
8:20 PM32 °FLight snow. Partly cloudy.15 mph100%29.03 "Hg4 mi
7:50 PM32 °FSnow. Dense fog.20 mph100%29.00 "Hg1 mi
7:20 PM32 °FLight snow. Passing clouds.18 mph100%29.00 "Hg2 mi
6:50 PM32 °FSnow. Dense fog.22 mph100%29.00 "Hg1 mi
6:20 PM32 °FLight snow. Passing clouds.17 mph100%29.00 "Hg1 mi
5:50 PM32 °FLight snow. Passing clouds.16 mph100%29.00 "Hg2 mi
5:20 PM32 °FSnow. Dense fog.15 mph100%29.00 "Hg1 mi
4:50 PM32 °FLight snow. Partly sunny.17 mph100%29.03 "Hg1 mi
4:20 PM32 °FLight snow. Partly sunny.17 mph100%29.03 "Hg1 mi
3:50 PM32 °FSnow. Dense fog.14 mph100%29.03 "Hg2 mi
3:20 PM34 °FSnow. Dense fog.18 mph87%29.03 "Hg1 mi
2:50 PM36 °FLight snow. Partly sunny.18 mph75%29.03 "Hg4 mi
2:20 PM37 °FScattered showers. Broken clouds.20 mph65%29.06 "HgN/A
1:50 PM37 °FPartly sunny.18 mph70%29.06 "HgN/A
1:20 PM37 °FScattered showers. Partly sunny.16 mph70%29.09 "HgN/A
12:50 PM36 °FScattered showers. Broken clouds.12 mph75%29.12 "HgN/A
12:20 PM36 °FScattered showers. Broken clouds.12 mph75%29.15 "HgN/A
11:50 AM34 °FScattered showers. Broken clouds.16 mph87%29.15 "HgN/A
11:20 AM34 °FScattered showers. Broken clouds.15 mph87%29.15 "HgN/A
10:50 AM34 °FScattered showers. Partly sunny.13 mph81%29.15 "HgN/A
10:20 AM34 °FSnow flurries. Partly sunny.12 mph81%29.15 "Hg4 mi
9:50 AM34 °FScattered showers. Broken clouds.10 mph75%29.15 "HgN/A
9:20 AM34 °FSnow flurries. Broken clouds.12 mph70%29.15 "HgN/A
8:50 AM34 °FScattered showers. Partly sunny.6 mph70%29.15 "HgN/A
8:20 AM34 °FScattered showers. Partly sunny.6 mph70%29.15 "HgN/A
7:50 AM36 °FSnow flurries. Passing clouds.6 mph65%29.15 "HgN/A
7:20 AM36 °FPassing clouds.3 mph60%29.15 "HgN/A
6:50 AM36 °FPassing clouds.3 mph56%29.15 "HgN/A
6:20 AM36 °FScattered showers. Passing clouds.7 mph65%29.15 "HgN/A
5:50 AM36 °FPassing clouds.5 mph65%29.12 "HgN/A
5:20 AM36 °FPassing clouds.5 mph60%29.09 "HgN/A
4:20 AM37 °FSnow flurries. Partly cloudy.15 mph65%29.09 "Hg2 mi
3:50 AM37 °FPartly cloudy.15 mph65%29.06 "HgN/A
3:20 AM39 °FPartly cloudy.13 mph56%29.03 "HgN/A
2:50 AM39 °FPartly cloudy.12 mph70%29.03 "HgN/A
Weather by CustomWeather, © 2014

See weather overviewHow to use our weather pages